When you browse on this site, cookies collect data to enhance your experience and personalize the content and advertising you see.
Visit our Privacy Policy to learn more. By continuing to use the site, you agree to this use of cookies and data.
  • In Hungary
  • List of Countries
  • For 7 days
  • Water Temperature
  • Weather Map
  • News
  • Weather Widgets
  • user-avatar
    Login

    Hourly Weather Baranka

    Today, 20 January, Monday

    Time Temperature Precipitation Wind Pressure Humidity
    00:00 -1°C° 0 mm 4 mps 749 mmHg 90%
    01:00 -1°C° 0 mm 5 mps 749 mmHg 89%
    02:00 -1°C° 0 mm 5 mps 750 mmHg 89%
    03:00 -1°C° 0 mm 5 mps 749 mmHg 89%
    04:00 -1°C° 0 mm 5 mps 749 mmHg 89%
    05:00 -1°C° 0 mm 4 mps 749 mmHg 89%
    06:00 -1°C° 0 mm 4 mps 749 mmHg 89%
    07:00 -1°C° 0 mm 4 mps 749 mmHg 88%
    08:00 -1°C° 0 mm 4 mps 750 mmHg 87%
    09:00 -1°C° 0 mm 5 mps 750 mmHg 87%
    10:00 -1°C° 0 mm 5 mps 750 mmHg 87%
    11:00 -1°C° 0 mm 5 mps 750 mmHg 88%
    12:00 -1°C° 0 mm 5 mps 750 mmHg 87%
    13:00 -1°C° 0 mm 5 mps 750 mmHg 86%
    14:00 -1°C° 0 mm 5 mps 750 mmHg 84%
    15:00 -1°C° 0 mm 5 mps 749 mmHg 84%
    16:00 -1°C° 0 mm 5 mps 749 mmHg 84%
    17:00 -1°C° 0 mm 5 mps 749 mmHg 84%
    18:00 -2°C° 0 mm 5 mps 748 mmHg 84%
    19:00 -2°C° 0 mm 5 mps 748 mmHg 84%
    20:00 -2°C° 0 mm 5 mps 748 mmHg 84%
    21:00 -2°C° 0 mm 5 mps 747 mmHg 84%
    22:00 -2°C° 0 mm 5 mps 746 mmHg 83%
    23:00 -2°C° 0 mm 5 mps 746 mmHg 83%

    Tomorrow, 21 January, Tuesday

    Time Temperature Precipitation Wind Pressure Humidity
    00:00 -2°C° 0 mm 5 mps 745 mmHg 84%
    01:00 -2°C° 0 mm 5 mps 745 mmHg 85%
    02:00 -2°C° 0 mm 5 mps 744 mmHg 86%
    03:00 -2°C° 0 mm 6 mps 743 mmHg 87%
    04:00 -2°C° 0 mm 6 mps 742 mmHg 88%
    05:00 -2°C° 0 mm 6 mps 741 mmHg 90%
    06:00 -1°C° 0 mm 6 mps 740 mmHg 90%
    07:00 -1°C° 0 mm 6 mps 740 mmHg 90%
    08:00 +1°C° 0 mm 6 mps 739 mmHg 90%
    09:00 +1°C° 0 mm 6 mps 739 mmHg 90%
    10:00 +2°C° 0 mm 6 mps 738 mmHg 91%
    11:00 +2°C° 0 mm 5 mps 737 mmHg 92%
    12:00 +2°C° 0.1 mm 5 mps 737 mmHg 92%
    13:00 +3°C° 0.1 mm 5 mps 736 mmHg 92%
    14:00 +3°C° 0.1 mm 5 mps 736 mmHg 91%
    15:00 +3°C° 0.5 mm 6 mps 735 mmHg 91%
    16:00 +3°C° 0.5 mm 6 mps 734 mmHg 91%
    17:00 +3°C° 0.5 mm 6 mps 733 mmHg 90%
    18:00 +3°C° 0.5 mm 6 mps 733 mmHg 88%
    19:00 +3°C° 0.5 mm 6 mps 734 mmHg 86%
    20:00 +3°C° 0.5 mm 6 mps 734 mmHg 84%
    21:00 +2°C° 0 mm 6 mps 734 mmHg 80%
    22:00 +1°C° 0 mm 6 mps 734 mmHg 76%
    23:00 -2°C° 0 mm 6 mps 734 mmHg 71%

    Day after tomorrow, 22 January, Wednesday

    Time Temperature Precipitation Wind Pressure Humidity
    00:00 -2°C° 0 mm 6 mps 734 mmHg 72%
    01:00 -3°C° 0 mm 6 mps 734 mmHg 73%
    02:00 -3°C° 0 mm 6 mps 734 mmHg 74%
    03:00 -3°C° 0 mm 6 mps 733 mmHg 76%
    04:00 -3°C° 0 mm 6 mps 732 mmHg 77%
    05:00 -2°C° 0 mm 5 mps 732 mmHg 79%
    06:00 -2°C° 0.1 mm 5 mps 731 mmHg 80%
    07:00 -2°C° 0.1 mm 5 mps 731 mmHg 82%
    08:00 -4°C° 0.1 mm 5 mps 730 mmHg 84%
    09:00 -3°C° 0.1 mm 6 mps 730 mmHg 81%
    10:00 -3°C° 0.1 mm 6 mps 730 mmHg 78%
    11:00 -3°C° 0.1 mm 6 mps 730 mmHg 75%
    12:00 -3°C° 0.2 mm 6 mps 729 mmHg 74%
    13:00 -2°C° 0.2 mm 5 mps 729 mmHg 72%
    14:00 -2°C° 0.2 mm 5 mps 729 mmHg 70%
    15:00 -4°C° 0 mm 5 mps 729 mmHg 70%
    16:00 -4°C° 0 mm 5 mps 729 mmHg 71%
    17:00 -4°C° 0 mm 5 mps 730 mmHg 72%
    18:00 -5°C° 0.1 mm 5 mps 730 mmHg 75%
    19:00 -5°C° 0.1 mm 5 mps 730 mmHg 79%
    20:00 -5°C° 0.1 mm 6 mps 731 mmHg 82%
    21:00 -5°C° 0 mm 6 mps 731 mmHg 76%
    22:00 -5°C° 0 mm 6 mps 732 mmHg 70%
    23:00 -6°C° 0 mm 6 mps 732 mmHg 64%

    23 January, Thursday

    Time Temperature Precipitation Wind Pressure Humidity
    00:00 -6°C° 0 mm 6 mps 733 mmHg 62%
    01:00 -8°C° 0 mm 6 mps 734 mmHg 60%
    02:00 -8°C° 0 mm 6 mps 734 mmHg 59%
    03:00 -9°C° 0 mm 6 mps 735 mmHg 57%
    04:00 -9°C° 0 mm 6 mps 735 mmHg 55%
    05:00 -9°C° 0 mm 6 mps 736 mmHg 53%
    06:00 -9°C° 0 mm 6 mps 736 mmHg 52%
    07:00 -9°C° 0 mm 6 mps 737 mmHg 51%
    08:00 -9°C° 0 mm 6 mps 738 mmHg 50%
    09:00 -8°C° 0 mm 6 mps 738 mmHg 51%
    10:00 -8°C° 0 mm 6 mps 739 mmHg 51%
    11:00 -7°C° 0 mm 7 mps 739 mmHg 52%
    12:00 -6°C° 0 mm 6 mps 739 mmHg 52%
    13:00 -6°C° 0 mm 6 mps 740 mmHg 53%
    14:00 -6°C° 0 mm 6 mps 740 mmHg 54%
    15:00 -6°C° 0 mm 5 mps 740 mmHg 56%
    16:00 -5°C° 0 mm 4 mps 740 mmHg 59%
    17:00 -6°C° 0 mm 3 mps 741 mmHg 62%
    18:00 -6°C° 0 mm 3 mps 740 mmHg 63%
    19:00 -5°C° 0 mm 3 mps 740 mmHg 65%
    20:00 -5°C° 0 mm 3 mps 740 mmHg 67%
    21:00 -5°C° 0 mm 3 mps 740 mmHg 70%
    22:00 -5°C° 0 mm 4 mps 739 mmHg 74%
    23:00 -5°C° 0 mm 4 mps 739 mmHg 78%

    24 January, Friday

    Time Temperature Precipitation Wind Pressure Humidity
    00:00 -6°C° 0.3 mm 5 mps 738 mmHg 83%
    01:00 -5°C° 0.3 mm 5 mps 737 mmHg 87%
    02:00 -5°C° 0.3 mm 6 mps 736 mmHg 92%
    03:00 -5°C° 0.6 mm 6 mps 735 mmHg 93%
    04:00 -4°C° 0.6 mm 5 mps 734 mmHg 94%
    05:00 -4°C° 0.6 mm 5 mps 733 mmHg 95%
    06:00 -2°C° 0.5 mm 5 mps 732 mmHg 95%
    07:00 0°C° 0.5 mm 5 mps 732 mmHg 94%
    08:00 +1°C° 0.5 mm 5 mps 732 mmHg 94%
    09:00 +1°C° 0.1 mm 5 mps 732 mmHg 93%
    10:00 +1°C° 0.1 mm 5 mps 732 mmHg 91%
    11:00 +1°C° 0.1 mm 5 mps 733 mmHg 90%
    12:00 +1°C° 0 mm 5 mps 733 mmHg 86%
    13:00 +1°C° 0 mm 4 mps 733 mmHg 82%
    14:00 +1°C° 0 mm 4 mps 733 mmHg 77%
    15:00 0°C° 0 mm 4 mps 734 mmHg 82%
    16:00 -1°C° 0 mm 4 mps 734 mmHg 87%
    17:00 -1°C° 0 mm 3 mps 734 mmHg 92%
    18:00 -1°C° 0 mm 3 mps 734 mmHg 92%
    19:00 -1°C° 0 mm 3 mps 734 mmHg 93%
    20:00 0°C° 0 mm 3 mps 734 mmHg 93%
    21:00 -1°C° 0 mm 2 mps 734 mmHg 94%
    22:00 -1°C° 0 mm 2 mps 734 mmHg 95%
    23:00 -1°C° 0 mm 2 mps 734 mmHg 96%

    25 January, Saturday

    Time Temperature Precipitation Wind Pressure Humidity
    00:00 -1°C° 0.1 mm 2 mps 734 mmHg 97%
    01:00 +1°C° 0.1 mm 2 mps 733 mmHg 97%
    02:00 +1°C° 0.1 mm 2 mps 733 mmHg 98%
    03:00 +1°C° 0.8 mm 2 mps 733 mmHg 98%
    04:00 +1°C° 0.8 mm 3 mps 732 mmHg 97%
    05:00 0°C° 0.8 mm 4 mps 732 mmHg 97%
    06:00 +1°C° 0.3 mm 4 mps 732 mmHg 96%
    07:00 +1°C° 0.3 mm 4 mps 732 mmHg 96%
    08:00 +1°C° 0.3 mm 4 mps 732 mmHg 95%
    09:00 +1°C° 0.2 mm 4 mps 732 mmHg 95%
    10:00 +2°C° 0.2 mm 3 mps 732 mmHg 95%
    11:00 +2°C° 0.2 mm 3 mps 733 mmHg 95%
    12:00 +2°C° 0.3 mm 3 mps 733 mmHg 95%
    13:00 +2°C° 0.3 mm 3 mps 733 mmHg 95%
    14:00 +2°C° 0.3 mm 3 mps 733 mmHg 95%
    15:00 +2°C° 0.2 mm 3 mps 733 mmHg 95%
    16:00 +2°C° 0.2 mm 3 mps 734 mmHg 95%
    17:00 +1°C° 0.2 mm 3 mps 734 mmHg 95%
    18:00 +1°C° 0.1 mm 3 mps 734 mmHg 95%
    19:00 +1°C° 0.1 mm 3 mps 735 mmHg 95%
    20:00 +1°C° 0.1 mm 3 mps 735 mmHg 96%
    21:00 +1°C° 0 mm 3 mps 735 mmHg 96%
    22:00 +1°C° 0 mm 3 mps 735 mmHg 96%
    23:00 +1°C° 0 mm 3 mps 735 mmHg 96%
    Show more